Skip Page Navigation
NASA JPL Caltech
NASA Logo - Jet Propulsion Laboratory + View the NASA Portal
+ Center for Near-Earth Object Studies
JPL Home Earth Solar System Stars & Galaxies Technology
JPL Solar System Dynamics
BODIES ORBITS EPHEMERIDES TOOLS PHYSICAL DATA DISCOVERY FAQ SITE MAP
JPL Small-Body Database Browser
Search: [ help ]  
766 Moguntia (A913 SH)
Classification: Main-belt Asteroid          SPK-ID: 2000766
Ephemeris | Orbit Diagram | Orbital Elements | Mission Design | Physical Parameters | Discovery Circumstances | Close-Approach Data ]

[ hide orbit diagram ]

For accurate long-term ephemerides, please instead use our Horizons system.This orbit viewer was implemented using two-body methods, and hence should not be used for determining accurate long-term trajectories (over several years or decades) or planetary encounter circumstances.


[ revert to old Java-based viewer ]

Orbital Elements at Epoch 2459000.5 (2020-May-31.0) TDB
Reference: JPL 39 (heliocentric ecliptic J2000)
 Element Value Uncertainty (1-sigma)   Units 
e .09657775963123932 3.295e-08  
a 3.019826710820718 1.2552e-08 au
q 2.728178612615078 1.0033e-07 au
i 10.08781207430846 4.3143e-06 deg
node 7.821947069526225 2.1964e-05 deg
peri 71.12832939659546 3.4089e-05 deg
M 58.10687209750961 2.4149e-05 deg
tp 2458691.116992199390
(2019-Jul-26.61699220)
0.00012877 TDB
period 1916.776429151368
5.25
1.195e-05
3.272e-08
d
yr
n .1878153312639524 1.171e-09 deg/d
Q 3.311474809026357 1.3764e-08 au
  Orbit Determination Parameters
   # obs. used (total)      2882  
   data-arc span      40741 days (111.54 yr)  
   first obs. used      1908-11-28  
   last obs. used      2020-06-14  
   planetary ephem.      DE431  
   SB-pert. ephem.      SB431-N16  
   condition code      0  
   norm. resid. RMS      .42108  
   source      ORB  
   producer      Otto Matic  
   solution date      2020-Jun-23 15:20:09  

Additional Information
 Earth MOID = 1.76385 au 
 Jupiter MOID = 1.95719 au 
 T_jup = 3.216 
[ show covariance matrix ]

Ephemeris | Orbit Diagram | Orbital Elements | Mission Design | Physical Parameters | Discovery Circumstances | Close-Approach Data ]

Physical Parameter Table
Parameter Symbol Value Units Sigma Reference Notes
absolute magnitude H 9.8   n/a MPO502160 IRAS observations used: 9
diameter diameter 41.044 km 0.141 urn:nasa:pds:neowise_diameters_albedos::2.0[mainbelt] (http://adsabs.harvard.edu/abs/2014ApJ...791..121M)  
rotation period rot_per 4.8164 h n/a LCDB (Rev. 2019-August); Warner et al., 2009 Published Reference List:
[Behrend, R. (2010) Observatoire de Geneve web site, http://obswww.unige.ch/~behrend/page_cou.html]
[Warner, B.D. (2010) Minor Planet Bull. 37, 112-118.]
geometric albedo albedo 0.223   0.025 urn:nasa:pds:neowise_diameters_albedos::2.0[mainbelt] (http://adsabs.harvard.edu/abs/2014ApJ...791..121M)  
B-V BV 0.802   0.030 EAR-A-5-DDR-UBV-MEAN-VALUES-V1.2 #obs=4; phase (min.=6.26, mean=7.13, max.=8.27) deg.
U-B UB 0.380   0.044 EAR-A-5-DDR-UBV-MEAN-VALUES-V1.2 #obs=3; phase (min.=6.97, mean=7.41, max.=8.27) deg.
Tholen spectral type spec_T MU   n/a EAR-A-5-DDR-TAXONOMY-V4.0 used 1 color indices; used ground-based radiometric albedo

766 Moguntia (A913 SH)          Discovered 1913-Sep-29 by Kaiser, F. at Heidelberg
Reference: DISCOVERY.DBLast Updated: 2003-08-29

[ show close-approach data ]
Alternate Designations
 A913 SH = A908 WE 
Ephemeris | Orbit Diagram | Orbital Elements | Mission Design | Physical Parameters | Discovery Circumstances | Close-Approach Data ]
ABOUT SSD CREDITS/AWARDS PRIVACY/COPYRIGHT GLOSSARY LINKS
FirstGov 2020-Oct-01 09:10 UT
(server date/time)  
NASA Home Page
Site Manager:   Ryan S. Park
Webmaster  Alan B. Chamberlin